Weather observations for the past three days for
Somerset County Airport
Imperial (Metric)
Date Time (edt) Wind (mph) Vis. (mi.) Weather Sky Cond. Temperature (ºF) Relative Humidity Wind Chill (°F) Heat Index (°F) Pressure Precipitation (in)
Air Dwpt 6 hour altimeter (in) sea level (mb) 1 hr 3 hr 6 hr
Max. Min.
24 10:15 N 12 G 17 10.00 Partly Cloudy SCT022 64.4 53.6 68% 29.94 0.0
24 09:55 N 12 G 21 10.00 Partly Cloudy SCT022 SCT027 SCT090 62.6 53.6 73% 29.94 0.0
24 09:35 N 12 10.00 Partly Cloudy SCT021 SCT026 SCT080 62.6 53.6 73% 29.94 0.0
24 09:15 NW 8 G 17 10.00 Overcast SCT013 BKN022 OVC060 60.8 53.6 77% 29.94 0.0
24 08:55 N 10 G 18 10.00 Overcast SCT013 OVC020 60.8 53.6 77% 29.93 0.0
24 08:35 NW 9 10.00 Overcast BKN017 OVC022 60.8 55.4 83% 29.91 0.0
24 08:15 NW 8 10.00 Overcast BKN017 OVC065 62.6 55.4 77% 29.91 0.0
24 07:55 NW 6 10.00 Mostly Cloudy SCT017 BKN047 BKN060 60.8 55.4 83% 29.9 0.0
24 07:35 NW 9 10.00 Mostly Cloudy SCT017 SCT022 BKN047 60.8 55.4 83% 29.88 0.0
24 07:15 N 10 G 16 10.00 Overcast SCT016 BKN022 OVC047 60.8 53.6 77% 29.88 0.0
24 06:55 NW 7 10.00 Mostly Cloudy SCT038 BKN047 60.8 55.4 83% 29.87 0.0
24 06:35 NW 9 10.00 Mostly Cloudy SCT025 BKN035 BKN042 60.8 55.4 83% 29.86 0.0
24 06:15 NW 8 10.00 Mostly Cloudy SCT025 SCT032 BKN039 60.8 55.4 83% 29.86 0.0
24 05:55 NW 9 10.00 Overcast SCT011 BKN025 OVC038 62.6 59 88% 29.85 0.0
24 05:35 NW 8 10.00 Mostly Cloudy SCT012 BKN065 60.8 59 94% 29.84 0.0
24 05:15 NW 8 10.00 Mostly Cloudy SCT010 SCT015 BKN048 62.6 60.8 94% 29.82 0.0
24 04:55 NW 12 10.00 Overcast BKN012 OVC020 62.6 60.8 94% 29.83 0.0
24 04:35 NW 7 10.00 Overcast BKN012 BKN018 OVC055 62.6 60.8 94% 29.82 0.0
24 04:15 NW 6 10.00 Overcast SCT012 BKN021 OVC060 62.6 60.8 94% 29.81 0.0
24 03:55 W 6 10.00 Mostly Cloudy SCT016 BKN027 BKN060 62.6 60.8 94% 29.81 0.0
24 03:35 NW 5 10.00 Partly Cloudy SCT028 SCT060 62.6 60.8 94% 29.81 0.0
24 03:15 NW 6 10.00 Mostly Cloudy BKN060 62.6 60.8 94% 29.81 0.0
24 02:55 W 7 10.00 Mostly Cloudy SCT019 BKN060 62.6 60.8 94% 29.81 0.0
24 02:35 W 7 10.00 Overcast OVC060 64.4 60.8 88% 29.81 0.0
24 02:15 W 7 10.00 Overcast SCT049 OVC060 64.4 62.6 94% 29.81 0.0
24 01:55 W 7 10.00 Mostly Cloudy SCT047 BKN060 64.4 60.8 88% 29.81 0.0 0.01
24 01:35 W 7 10.00 Partly Cloudy SCT045 64.4 62.6 94% 29.81 0.0
24 01:15 NW 6 10.00 Partly Cloudy SCT017 SCT025 SCT030 64.4 62.6 94% 29.8 0.0
24 00:55 NW 5 10.00 Mostly Cloudy SCT018 BKN030 BKN037 64.4 64.4 100% 29.8 0.0
24 00:35 NW 7 10.00 Partly Cloudy SCT017 SCT022 SCT039 64.4 64.4 100% 29.8 0.0
24 00:15 NW 8 10.00 Mostly Cloudy SCT017 BKN024 BKN034 66.2 64.4 94% 29.8 0.0
23 23:55 NW 6 10.00 Overcast SCT026 BKN032 OVC050 66.2 64.4 94% 29.81 0.0
23 23:35 W 5 10.00 Overcast SCT023 BKN032 OVC060 66.2 64.4 94% 29.81 0.0
23 23:15 W 6 10.00 Overcast SCT014 BKN032 OVC045 66.2 64.4 94% 29.81 0.0
23 22:55 W 8 10.00 Light Rain SCT027 BKN034 OVC042 68 64.4 88% 29.81 0.0
23 22:35 NW 10 10.00 Overcast SCT010 BKN022 OVC027 68 64.4 88% 29.8 0.0
23 22:15 NW 8 10.00 Rain SCT016 BKN021 BKN065 68 68 100% 29.79 0.0
23 21:55 W 10 10.00 Rain SCT014 SCT028 BKN120 68 68 100% 29.77 0.0
23 21:35 SW 9 10.00 Partly Cloudy SCT032 68 66.2 94% 29.77 0.0
23 21:15 SW 8 10.00 Partly Cloudy SCT034 68 64.4 88% 29.77 0.0
23 20:55 SW 12 10.00 Partly Cloudy SCT023 SCT070 SCT110 68 64.4 88% 29.77 0.0 0.03
23 19:35 NW 8 10.00 Overcast SCT023 BKN033 OVC070 69.8 68 94% 29.77 0.0 0.02
23 19:15 SW 12 G 18 7.00 Rain SCT019 BKN034 OVC050 69.8 68 94% 29.76 0.0 0.02
23 18:55 W 13 G 22 7.00 Rain BKN023 BKN037 OVC070 71.6 68 88% 29.78 0.0 0.03
23 18:35 SW 14 G 23 10.00 Light Rain SCT018 BKN060 OVC090 71.6 68 88% 29.76 0.0 0.01
23 17:55 SW 15 G 24 10.00 Mostly Cloudy SCT023 SCT039 BKN120 73.4 66.2 78% 29.77 0.0
23 17:35 SW 18 G 31 10.00 Mostly Cloudy SCT047 BKN065 BKN070 73.4 66.2 78% 29.77 0.0
23 17:15 SW 22 G 31 10.00 Overcast and Breezy SCT027 BKN045 OVC065 75.2 66.2 74% 77 29.78 0.0
23 16:55 W 20 G 26 10.00 Overcast BKN033 BKN039 OVC049 78.8 64.4 61% 81 29.78 0.0
23 16:35 SW 15 G 22 10.00 Overcast BKN029 BKN037 OVC044 78.8 66.2 65% 81 29.78 0.0
23 16:15 W 18 G 24 10.00 Mostly Cloudy SCT029 BKN036 BKN042 77 66.2 69% 79 29.78 0.0
23 15:55 SW 17 G 24 10.00 Mostly Cloudy SCT031 SCT036 BKN050 75.2 66.2 74% 77 29.8 0.0
23 15:35 W 21 G 29 10.00 Partly Cloudy and Breezy SCT034 SCT050 SCT065 77 64.4 65% 79 29.81 0.0
23 15:15 SW 18 G 28 10.00 Mostly Cloudy SCT037 SCT060 BKN065 73.4 66.2 78% 29.81 0.0
23 14:55 W 20 G 26 7.00 Overcast SCT036 BKN050 OVC075 75.2 64.4 69% 77 29.83 0.0 0.02
23 14:35 W 10 G 25 10.00 Rain SCT021 BKN037 OVC075 73.4 66.2 78% 29.81 0.0 0.02
23 14:15 W 16 G 25 10.00 Mostly Cloudy SCT041 SCT047 BKN070 78.8 62.6 58% 80 29.81 0.0
23 13:55 SW 18 G 30 10.00 Overcast SCT041 BKN049 OVC070 78.8 62.6 58% 80 29.82 0.0
23 13:35 W 20 G 32 10.00 Overcast SCT040 BKN047 OVC050 78.8 62.6 58% 80 29.83 0.0
23 13:15 SW 22 G 28 10.00 Mostly Cloudy and Breezy SCT038 BKN044 BKN050 78.8 62.6 58% 80 29.83 0.0
23 12:55 W 20 G 24 10.00 Mostly Cloudy SCT036 BKN045 BKN120 78.8 64.4 61% 81 29.83 0.0
23 12:35 SW 20 G 25 10.00 Mostly Cloudy SCT036 BKN045 BKN060 78.8 64.4 61% 81 29.83 0.0
23 12:15 SW 16 G 25 10.00 Mostly Cloudy SCT032 BKN041 78.8 64.4 61% 81 29.85 0.0
23 11:55 SW 16 G 24 10.00 Mostly Cloudy BKN032 BKN040 78.8 64.4 61% 81 29.85 0.0
23 11:35 W 16 G 23 10.00 Mostly Cloudy BKN032 BKN042 77 64.4 65% 79 29.86 0.0
23 11:15 SW 20 G 24 10.00 Mostly Cloudy BKN030 BKN036 77 64.4 65% 79 29.87 0.0
23 10:55 W 16 G 23 10.00 Mostly Cloudy BKN030 BKN038 77 64.4 65% 79 29.88 0.0
23 10:35 W 15 G 22 10.00 Partly Cloudy SCT030 77 64.4 65% 79 29.88 0.0
23 10:15 W 13 G 21 10.00 Partly Cloudy SCT043 SCT049 SCT060 77 64.4 65% 79 29.88 0.0
23 09:55 SW 16 G 23 10.00 Mostly Cloudy SCT045 BKN110 77 64.4 65% 79 29.88 0.0
23 09:35 SW 14 10.00 Overcast BKN090 OVC110 75.2 64.4 69% 77 29.89 0.0
23 09:15 SW 12 10.00 Overcast SCT050 SCT065 OVC080 73.4 64.4 74% 29.89 0.0
23 08:55 SW 14 G 18 10.00 Partly Cloudy SCT055 SCT070 SCT080 73.4 64.4 74% 29.89 0.0
23 08:35 SW 14 10.00 Partly Cloudy SCT110 73.4 64.4 74% 29.9 0.0
23 08:15 SW 14 G 21 10.00 Partly Cloudy SCT110 73.4 64.4 74% 29.9 0.0
23 07:55 W 15 G 22 10.00 Mostly Cloudy BKN110 73.4 64.4 74% 29.9 0.0
23 07:35 SW 13 G 18 10.00 Overcast OVC110 73.4 64.4 74% 29.9 0.0
23 07:15 W 13 G 18 10.00 Overcast OVC110 73.4 64.4 74% 29.9 0.0
23 06:55 SW 10 10.00 Partly Cloudy SCT110 71.6 64.4 78% 29.9 0.0
23 06:35 SW 10 10.00 Fair CLR 71.6 62.6 73% 29.9 0.0
23 06:15 SW 7 10.00 Fair CLR 71.6 62.6 73% 29.9 0.0
23 05:55 SW 7 10.00 Fair CLR 71.6 62.6 73% 29.91 0.0
23 05:35 SW 6 10.00 Fair CLR 71.6 62.6 73% 29.91 0.0
23 05:15 SW 7 10.00 Fair CLR 71.6 62.6 73% 29.92 0.0
23 04:55 SW 12 10.00 Fair CLR 71.6 62.6 73% 29.92 0.0
23 04:35 SW 8 10.00 Fair CLR 71.6 62.6 73% 29.93 0.0
23 04:15 SW 8 10.00 Fair CLR 71.6 62.6 73% 29.93 0.0
23 03:55 SW 8 10.00 Fair CLR 71.6 62.6 73% 29.94 0.0
23 03:35 SW 7 10.00 Fair CLR 71.6 62.6 73% 29.94 0.0
23 03:15 SW 8 10.00 Fair CLR 71.6 62.6 73% 29.95 0.0
23 02:55 SW 7 10.00 Fair CLR 71.6 62.6 73% 29.95 0.0
23 02:35 SW 6 10.00 Fair CLR 73.4 62.6 69% 29.96 0.0
23 02:15 SW 5 10.00 Fair CLR 71.6 62.6 73% 29.96 0.0
23 01:55 SW 5 10.00 Fair CLR 73.4 62.6 69% 29.97 0.0
23 01:35 SW 6 10.00 Fair CLR 69.8 62.6 78% 29.98 0.0
23 01:15 SW 3 10.00 Fair CLR 69.8 62.6 78% 29.99 0.0
23 00:55 SW 6 10.00 Fair CLR 69.8 62.6 78% 29.99 0.0
23 00:35 SW 6 10.00 Partly Cloudy SCT095 71.6 62.6 73% 29.99 0.0
23 00:15 SW 5 10.00 Partly Cloudy SCT095 71.6 62.6 73% 30 0.0
22 23:55 SW 3 10.00 Mostly Cloudy BKN095 71.6 62.6 73% 29.99 0.0
22 23:35 SW 5 10.00 Mostly Cloudy BKN095 71.6 62.6 73% 30 0.0
22 23:15 SW 3 10.00 Mostly Cloudy BKN095 73.4 62.6 69% 30 0.0
22 22:55 SW 3 10.00 Mostly Cloudy BKN095 73.4 62.6 69% 30.01 0.0
22 22:35 SW 5 10.00 Mostly Cloudy BKN095 75.2 62.6 65% 77 30.01 0.0
22 22:15 SW 5 10.00 Partly Cloudy SCT095 73.4 62.6 69% 30.01 0.0
22 21:55 SW 5 10.00 Partly Cloudy SCT095 73.4 62.6 69% 30.02 0.0
22 21:35 SW 5 10.00 Fair CLR 75.2 62.6 65% 77 30.02 0.0
22 21:15 SW 5 10.00 Fair CLR 77 62.6 61% 79 30.02 0.0
22 20:55 SW 3 10.00 Fair CLR 77 62.6 61% 79 30.02 0.0
22 20:35 SW 3 10.00 Fair CLR 78.8 62.6 58% 80 30.02 0.0
22 20:15 SW 6 10.00 Fair CLR 80.6 62.6 54% 82 30.03 0.0
22 19:55 SW 5 10.00 Fair CLR 82.4 62.6 51% 83 30.02 0.0
22 19:35 W 7 10.00 Fair CLR 82.4 62.6 51% 83 30.03 0.0
22 19:15 W 10 10.00 Fair CLR 84.2 60.8 45% 84 30.02 0.0
22 18:55 W 7 10.00 Fair CLR 84.2 60.8 45% 84 30.02 0.0
22 18:35 W 8 10.00 Fair CLR 86 60.8 43% 86 30.02 0.0
22 18:15 W 10 G 17 10.00 Fair CLR 86 60.8 43% 86 30.03 0.0
22 17:55 W 8 10.00 Fair CLR 87.8 60.8 40% 88 30.03 0.0
22 17:35 SW 10 10.00 Fair CLR 87.8 60.8 40% 88 30.04 0.0
22 17:15 W 12 10.00 Fair CLR 87.8 60.8 40% 88 30.05 0.0
22 16:55 SW 14 G 17 10.00 Partly Cloudy SCT090 87.8 60.8 40% 88 30.06 0.0
22 16:35 W 14 G 17 10.00 Partly Cloudy SCT055 SCT090 87.8 62.6 43% 88 30.06 0.0
22 16:15 W 10 10.00 Mostly Cloudy SCT055 BKN080 87.8 62.6 43% 88 30.07 0.0
22 15:55 W 10 10.00 Partly Cloudy SCT065 SCT080 87.8 62.6 43% 88 30.07 0.0
22 15:35 W 6 G 18 10.00 Partly Cloudy SCT060 87.8 62.6 43% 88 30.07 0.0
22 15:15 W 6 G 17 10.00 Partly Cloudy SCT060 87.8 60.8 40% 88 30.08 0.0
22 14:55 SW 10 10.00 Fair CLR 87.8 62.6 43% 88 30.09 0.0
22 14:35 W 8 10.00 Partly Cloudy SCT055 86 60.8 43% 86 30.09 0.0
22 14:15 W 7 G 16 10.00 Partly Cloudy SCT055 86 60.8 43% 86 30.1 0.0
22 13:55 NW 10 10.00 Partly Cloudy SCT055 86 60.8 43% 86 30.11 0.0
22 13:35 W 5 10.00 Fair CLR 86 62.6 46% 87 30.11 0.0
22 13:15 W 10 10.00 Fair CLR 86 62.6 46% 87 30.13 0.0
22 12:55 NW 12 10.00 Partly Cloudy SCT046 SCT050 SCT085 86 62.6 46% 87 30.14 0.0
22 12:35 NW 12 10.00 Mostly Cloudy BKN046 BKN050 BKN085 82.4 64.4 55% 84 30.14 0.0
22 12:15 W 10 10.00 Partly Cloudy SCT042 SCT050 82.4 64.4 55% 84 30.15 0.0
22 11:55 W 10 10.00 Partly Cloudy SCT042 SCT050 82.4 64.4 55% 84 30.15 0.0
22 11:35 W 12 10.00 Partly Cloudy SCT042 82.4 64.4 55% 84 30.16 0.0
22 11:15 W 9 10.00 Partly Cloudy SCT037 80.6 64.4 58% 82 30.16 0.0
22 10:55 W 10 10.00 Partly Cloudy SCT035 82.4 66.2 58% 85 30.16 0.0
22 10:35 W 8 10.00 Fair CLR 80.6 66.2 62% 83 30.17 0.0
22 10:15 W 8 10.00 Fair CLR 80.6 66.2 62% 83 30.17 0.0
22 09:55 W 7 10.00 Fair CLR 78.8 66.2 65% 81 30.18 0.0
22 09:35 SW 7 10.00 Fair CLR 78.8 64.4 61% 81 30.18 0.0
22 09:15 SW 7 10.00 Fair CLR 77 64.4 65% 79 30.18 0.0
22 08:55 SW 8 10.00 Fair CLR 75.2 62.6 65% 77 30.19 0.0
22 08:35 SW 8 10.00 Fair CLR 73.4 62.6 69% 30.19 0.0
22 08:15 SW 8 10.00 Fair CLR 73.4 62.6 69% 30.19 0.0
22 07:55 SW 7 10.00 Fair CLR 71.6 62.6 73% 30.19 0.0
22 07:35 SW 7 10.00 Fair CLR 71.6 62.6 73% 30.18 0.0
22 07:15 SW 5 10.00 Fair CLR 69.8 62.6 78% 30.18 0.0
22 06:55 SW 3 10.00 Fair CLR 68 62.6 83% 30.19 0.0
22 06:35 SW 5 10.00 Fair CLR 66.2 62.6 88% 30.19 0.0
22 06:15 SW 6 10.00 Partly Cloudy SCT055 66.2 62.6 88% 30.19 0.0
22 05:55 SW 7 10.00 Partly Cloudy SCT055 64.4 62.6 94% 30.19 0.0
22 05:35 SW 6 10.00 Fair CLR 64.4 60.8 88% 30.19 0.0
22 05:15 SW 6 10.00 Fair CLR 64.4 62.6 94% 30.18 0.0
22 04:55 SW 3 10.00 Fair CLR 64.4 60.8 88% 30.19 0.0
22 04:35 SW 5 10.00 Fair CLR 64.4 60.8 88% 30.19 0.0
22 04:15 SW 3 10.00 Fair CLR 64.4 60.8 88% 30.18 0.0
22 03:55 Calm 10.00 Fair CLR 66.2 60.8 83% 30.18 0.0
22 03:35 SW 3 10.00 Fair CLR 64.4 60.8 88% 30.18 0.0
22 03:15 Calm 10.00 Fair CLR 66.2 60.8 83% 30.19 0.0
22 02:55 SW 3 10.00 Fair CLR 69.8 62.6 78% 30.19 0.0
22 02:35 SW 5 10.00 Fair CLR 69.8 62.6 78% 30.2 0.0
22 02:15 SW 5 10.00 Fair CLR 66.2 60.8 83% 30.2 0.0
22 01:55 SW 3 10.00 Fair CLR 64.4 60.8 88% 30.2 0.0
22 01:35 Calm 10.00 Fair CLR 68 60.8 78% 30.2 0.0
22 01:15 Calm 10.00 Fair CLR 66.2 60.8 83% 30.21 0.0
22 00:55 Calm 10.00 Fair CLR 68 60.8 78% 30.21 0.0
22 00:35 S 5 10.00 Fair CLR 68 62.6 83% 30.21 0.0
22 00:15 SW 3 10.00 Fair CLR 68 62.6 83% 30.22 0.0
21 23:55 SW 3 10.00 Fair CLR 66.2 60.8 83% 30.22 0.0
21 23:35 SW 5 10.00 Fair CLR 68 60.8 78% 30.23 0.0
21 23:15 SW 3 10.00 Fair CLR 66.2 60.8 83% 30.22 0.0
21 22:55 SW 3 10.00 Fair CLR 68 60.8 78% 30.23 0.0
21 22:35 SW 3 10.00 Fair CLR 69.8 60.8 73% 30.21 0.0
21 22:15 Calm 10.00 Fair CLR 69.8 60.8 73% 30.21 0.0
21 21:55 SW 3 10.00 Fair CLR 71.6 60.8 69% 30.21 0.0
21 21:35 Calm 10.00 Fair CLR 73.4 62.6 69% 30.21 0.0
21 21:15 Calm 10.00 Fair CLR 73.4 60.8 65% 30.21 0.0
21 20:55 Calm 10.00 Fair CLR 77 60.8 57% 79 30.21 0.0
21 20:35 Calm 10.00 Fair CLR 77 60.8 57% 79 30.2 0.0
21 20:15 Calm 10.00 Fair CLR 78.8 60.8 54% 80 30.2 0.0
21 19:55 W 3 10.00 Fair CLR 80.6 60.8 51% 81 30.21 0.0
21 19:35 Calm 10.00 Fair CLR 80.6 60.8 51% 81 30.21 0.0
21 19:15 W 8 10.00 Fair CLR 82.4 59 45% 82 30.21 0.0
21 18:55 W 6 10.00 Fair CLR 84.2 60.8 45% 84 30.2 0.0
21 18:35 NW 6 10.00 Fair CLR 84.2 59 43% 84 30.2 0.0
21 18:15 W 8 10.00 Fair CLR 84.2 60.8 45% 84 30.2 0.0
21 17:55 W 8 10.00 Fair CLR 86 60.8 43% 86 30.2 0.0
21 17:35 W 10 10.00 Fair CLR 86 59 40% 85 30.22 0.0
21 17:15 W 10 10.00 Fair CLR 86 60.8 43% 86 30.22 0.0
21 16:55 NW 12 10.00 Fair CLR 86 60.8 43% 86 30.23 0.0
21 16:35 W 9 G 16 10.00 Partly Cloudy SCT055 86 60.8 43% 86 30.23 0.0
21 16:15 NW 10 G 18 10.00 Fair CLR 86 60.8 43% 86 30.23 0.0
21 15:55 W 10 10.00 Fair CLR 86 60.8 43% 86 30.24 0.0
21 15:35 W 10 10.00 Partly Cloudy SCT055 86 60.8 43% 86 30.24 0.0
21 15:15 W 13 10.00 Partly Cloudy SCT055 86 60.8 43% 86 30.25 0.0
21 14:55 W 10 G 16 10.00 Fair CLR 86 62.6 46% 87 30.25 0.0
21 14:35 W 8 G 16 10.00 Fair CLR 86 62.6 46% 87 30.25 0.0
21 14:15 NW 9 10.00 Partly Cloudy SCT048 SCT065 84.2 64.4 51% 86 30.26 0.0
21 13:55 N 9 10.00 Mostly Cloudy BKN048 BKN065 84.2 64.4 51% 86 30.27 0.0
21 13:35 NW 7 10.00 Mostly Cloudy BKN046 BKN065 82.4 64.4 55% 84 30.28 0.0
21 13:15 W 5 10.00 Partly Cloudy SCT044 SCT055 SCT070 82.4 64.4 55% 84 30.29 0.0
21 12:55 NW 6 10.00 Partly Cloudy SCT043 SCT055 SCT070 80.6 64.4 58% 82 30.3 0.0
21 12:35 W 6 10.00 Fair CLR 82.4 64.4 55% 84 30.3 0.0
21 12:15 NW 5 10.00 Mostly Cloudy SCT050 BKN060 82.4 64.4 55% 84 30.3 0.0
21 11:55 W 7 10.00 Mostly Cloudy SCT036 SCT048 BKN055 80.6 64.4 58% 82 30.31 0.0
21 11:35 W 7 10.00 Mostly Cloudy BKN038 BKN044 80.6 64.4 58% 82 30.31 0.0
21 11:15 Calm 10.00 Partly Cloudy SCT037 SCT045 82.4 64.4 55% 84 30.31 0.0
21 10:55 W 5 10.00 Mostly Cloudy BKN037 BKN043 80.6 64.4 58% 82 30.31 0.0
21 10:35 SW 5 10.00 Partly Cloudy SCT035 SCT043 80.6 64.4 58% 82 30.31 0.0
Date Time (edt) Wind (mph) Vis. (mi.) Weather Sky Cond. Air Dwpt Max. Min. Relative Humidity Wind Chill (°F) Heat Index (°F) altimeter (in) sea level (mb) 1 hr 3 hr 6 hr
6 hour
Temperature (ºF) Pressure Precipitation (in)